Orient Glider Airport

Jump to: basic info | weather | comments

Related pages: nearby airports | nearby navaids | notams | map

Basic information (top)

Codes: FAOI
Location: lon -26.039400, lat 27.595600, elev 5,102 ft / 1,555 m msl
Status: small_airport

Weather (top)

Current conditions for Lanseria Airport 19nm (35km) ENE (rec'd 2014/11/21 11:00Z):

FALA 211100Z 12009KT 9999 FEW040 FEW045TCU 26/05 Q1021 NOSIG

Airport forecast for Lanseria Airport 19nm (35km) ENE (rec'd 2014/11/21 06:51Z):

TAF FALA 210744Z 2106/2206 36006KT CAVOK 
      BECMG 2108/2110 33010KT SCT045 PROB40 
      TEMPO 2112/2118 5000 TSRA FEW035CB 
     FM211900 VRB02KT CAVOK TX29/2113ZTN11/2203Z

Latest comments (top)

Runway Orientation and Airfield Frequency: Runway 36/18 (Main) Runway 11/29 Airfi ... [read]

More... (top)

See also NOTAMs and nearby airports and navaids, or visit the Orient Glider Airport page at the main OurAirports website..